GSAT0217 (GALILEO 21) (43057 NORAD) Tracking and Keplerian Element Data

This shows tracking and keplerian element data for the satellite.

Feedback or suggestion? Click here.




ElementValue
Catalog43057
NameGSAT0217 (GALILEO 21)
Epoch Orbit571
Epoch Day317.15671117
Epoch Year2018
RAAN297.7405
Inclination56.7345
Eccentricity0.0005164
Argument of Perigee267.0886
Mean Anonmoly92.8392
Mean Motion1.70473825
Decay Rate-3E-07
L11 43057U 17079C 18317.15671117 -.00000030 00000-0 00000+0 0 9995
L22 43057 56.7345 297.7405 0005164 267.0886 92.8392 1.70473825 5711

Live tracking and technical data element details for GSAT0217 (GALILEO 21) (NORAD 43057). GSAT0217 (GALILEO 21) can be tracked NOW for your location showing map with azimuth and elevation plus other details from your city location.

Track the satellite on the map from your city or location and see movement details for azimuth, elevation, latitude, longitude, range, height, and movement on the map or in text.







IsCatalogInMostPopularTable: catalog: 43057, numindb: 152
Update: records affected: 1



GetName: 43057 GSAT0217 (GALILEO 21)

Hit Count: updated at: Wed, 14 Nov 2018 11:27:04 GMT